Weather History for Punta Gorda, FL

Change the Weather History Date:

Monday, December 2, 2013

  Actual Average Record
Temperature  
Mean Temperature 66 °F -  
Max Temperature 71 °F 76 °F 84 °F (2006)
Min Temperature 62 °F 53 °F 37 °F (1999)
Cooling Degree Days 2    
Growing Degree Days 16 (Base 50)    
Moisture  
Dew Point 63 °F    
Average Humidity 90    
Maximum Humidity 100    
Minimum Humidity 75    
Precipitation  
Precipitation 0.00 in - - ()
Sea Level Pressure  
Sea Level Pressure 29.95 in    
Wind  
Wind Speed 4 mph (NNW)    
Max Wind Speed 8 mph    
Max Gust Speed -    
Visibility 7 miles    
Events Fog    
Averages and records for this station are not official NWS values.
T = Trace of Precipitation, MM = Missing Value Source: NWS Daily Summary

Daily Weather History Graph

Daily Weather History Graph

Search for Another Location

Airport:

Trip Planner

Search our weather history database for the weather conditions in past years. The results will help you decide how hot, cold, wet, or windy it might be!

Date:

Astronomy

Dec. 02, 2013 Rise Set
Actual Time 7:00 AM EST 5:34 PM EST
Civil Twilight 6:35 AM EST 5:59 PM EST
Nautical Twilight 6:06 AM EST 6:28 PM EST
Astronomical Twilight 5:38 AM EST 6:56 PM EST
Moon 6:27 AM EST 5:33 PM EST
Length of Visible Light 11h 23m
Length of Day
10h 33m
Waning Crescent, 0% of the Moon is Illuminated
Dec 2
Waning Crescent
Dec 2
New
Dec 9
First Quarter
Dec 17
Full
Dec 25
Last Quarter

Hourly Weather History & Observations

Time (EST) Temp. Dew Point Humidity Pressure Visibility Wind Dir Wind Speed Gust Speed Precip Events Conditions
12:25 AM 62.1 °F 62.1 °F 100% 30.00 in 1.8 mi NE 3.5 mph - N/A   Mostly Cloudy
12:39 AM 64.0 °F 62.1 °F 93% 29.99 in 3.0 mi NNE 3.5 mph - N/A   Mostly Cloudy
12:53 AM 64.0 °F 63.0 °F 96% 29.99 in 9.0 mi Calm Calm - N/A   Overcast
1:21 AM 66.0 °F 64.0 °F 93% 29.98 in 10.0 mi Calm Calm - N/A   Overcast
1:34 AM 64.9 °F 63.0 °F 93% 29.97 in 10.0 mi North 3.5 mph - N/A   Overcast
1:53 AM 64.0 °F 63.0 °F 96% 29.97 in 10.0 mi NNW 4.6 mph - N/A   Mostly Cloudy
2:08 AM 64.9 °F 63.0 °F 93% 29.96 in 10.0 mi NNW 3.5 mph - N/A   Overcast
2:53 AM 64.9 °F 63.0 °F 93% 29.95 in 10.0 mi West 3.5 mph - N/A   Overcast
3:53 AM 64.9 °F 63.0 °F 93% 29.95 in 10.0 mi NW 5.8 mph - N/A   Overcast
4:34 AM 64.0 °F 63.0 °F 96% 29.94 in 1.8 mi NNW 4.6 mph - N/A   Overcast
4:45 AM 63.0 °F 63.0 °F 100% 29.94 in 0.5 mi NW 4.6 mph - N/A Fog Fog
4:53 AM 64.0 °F 63.0 °F 96% 29.95 in 0.5 mi NNW 8.1 mph - N/A Fog Fog
5:05 AM 64.0 °F 63.0 °F 96% 29.94 in 1.2 mi NNW 8.1 mph - N/A   Overcast
5:32 AM 63.0 °F 62.1 °F 97% 29.94 in 0.8 mi NW 6.9 mph - N/A   Mist
5:48 AM 62.6 °F 62.6 °F 100% 29.94 in 1.0 mi NW 5.8 mph - N/A   Mist
5:53 AM 63.0 °F 62.1 °F 97% 29.95 in 1.2 mi NW 8.1 mph - N/A   Overcast
6:53 AM 63.0 °F 62.1 °F 97% 29.96 in 1.2 mi NNW 6.9 mph - N/A   Overcast
7:03 AM 63.0 °F 63.0 °F 100% 29.95 in 0.2 mi NNW 5.8 mph - N/A Fog Fog
7:38 AM 64.0 °F 63.0 °F 96% 29.96 in 1.5 mi NNW 5.8 mph - N/A Fog Fog
7:53 AM 64.0 °F 63.0 °F 96% 29.97 in 3.0 mi NNW 6.9 mph - N/A   Overcast
8:07 AM 64.0 °F 63.0 °F 96% 29.96 in 5.0 mi NW 6.9 mph - N/A   Mostly Cloudy
8:17 AM 64.9 °F 63.0 °F 93% 29.97 in 6.0 mi NNW 8.1 mph - N/A   Scattered Clouds
8:53 AM 68.0 °F 64.0 °F 87% 29.98 in 10.0 mi North 6.9 mph - N/A   Scattered Clouds
9:53 AM 69.1 °F 63.0 °F 81% 29.97 in 10.0 mi NNW 3.5 mph - N/A   Scattered Clouds
10:53 AM 70.0 °F 62.1 °F 76% 29.95 in 10.0 mi NW 5.8 mph - N/A   Clear
11:53 AM 71.1 °F 63.0 °F 75% 29.93 in 10.0 mi North 5.8 mph - N/A   Clear
12:53 PM 70.0 °F 62.1 °F 76% 29.91 in 10.0 mi NNW 5.8 mph - N/A   Clear
1:53 PM 70.0 °F 63.0 °F 78% 29.88 in 10.0 mi NNW 4.6 mph - N/A   Clear
2:53 PM 70.0 °F 63.0 °F 78% 29.88 in 10.0 mi NNW 5.8 mph - N/A   Clear
3:53 PM 70.0 °F 62.1 °F 76% 29.88 in 10.0 mi NW 5.8 mph - N/A   Clear
4:53 PM 69.1 °F 62.1 °F 78% 29.89 in 10.0 mi Calm Calm - N/A   Clear
5:53 PM 68.0 °F 62.1 °F 81% 29.91 in 10.0 mi North 3.5 mph - N/A   Overcast
6:53 PM 66.9 °F 63.0 °F 87% 29.91 in 10.0 mi Calm Calm - N/A   Overcast
7:53 PM 66.9 °F 63.0 °F 87% 29.93 in 10.0 mi Calm Calm - N/A   Overcast
8:53 PM 66.0 °F 63.0 °F 90% 29.94 in 10.0 mi SE 3.5 mph - N/A   Overcast
9:53 PM 66.9 °F 64.0 °F 90% 29.95 in 10.0 mi Calm Calm - N/A   Overcast
10:53 PM 66.9 °F 62.1 °F 84% 29.95 in 10.0 mi Calm Calm - N/A   Overcast
11:53 PM 66.9 °F 62.1 °F 84% 29.95 in 10.0 mi Calm Calm - N/A   Overcast